sat.trackr.live / text

‹ back to catalog

AISTECHSAT 2

NORAD 43768 · 2018-099L

PAYLOAD ACTIVE UNKNOWN

§ Identity

Operator
Country
SPN
Launch date
2018-12-03
Launch site
AFWTR
Launch vehicle
Mass (kg)
RCS (m²)

External: N2YO · Heavens-Above · Gunter

§ Orbital elements

Epoch: 2026-09-09T15:37:16.257504Z

Period
94.98 min
Inclination
97.4221°
Eccentricity
0.0005003
Mean motion
15.16181367 rev/d
Perigee alt
513.9 km
Apogee alt
520.8 km
Semi-major
6,895.5 km
B*
1.9796e-4
RAAN
298.8436°
Arg perigee
26.4767°
Mean anomaly
333.6721°
Rev number
42,507

§ Raw data

AISTECHSAT 21 43768U 18099L   26252.65088261  .00003757  00000+0  19796-3 0  99942 43768  97.4221 298.8436 0005003  26.4767 333.6721 15.16181367425077

JSON: /api/v1/satellites/43768 · /tle

For live sub-satellite position, see the globe view (requires WebGL).

§ Visibility from observer

Set your observer location to see the next 7 days of passes ≥ 10°. The values pass through the URL so the page stays shareable.

No JS? Fill the form by hand. The geolocation button needs JavaScript.

§ Radio — SatNOGS DB

ModeDescriptionDownlinkUplink
FSK AX.100 Mode 5 GFSK4k8 436.730 MHz
FSK AX.100 Mode 5 GFSK9K6 (inactive) 436.730 MHz
GFSK Telemetry (inactive) 436.600 MHz

3 transmitters · refreshed weekly from db.satnogs.org